| time (UTC) | temp C | wind direction | speed KPH | gust KPH | rain 1hr cm | rain 24hr cm | rain mn cm | humidity % | barometer mb |
| 20260906061330 | 23 | 61 | 0.0 | 3.2 | 0.00 | 0.46 | 0.38 | 100 | |
| 20260906060830 | 22 | 119 | 1.6 | 4.8 | 0.00 | 0.46 | 0.38 | 100 | |
| 20260906060330 | 23 | 70 | 4.8 | 6.4 | 0.00 | 0.46 | 0.38 | 100 | |
| 20260906055830 | 23 | 66 | 3.2 | 8.0 | 0.00 | 0.46 | 0.38 | 100 | |
| 20260906055330 | 23 | 74 | 3.2 | 6.4 | 0.00 | 0.46 | 0.38 | 100 | |
| 20260906054833 | 23 | 39 | 3.2 | 4.8 | 0.00 | 0.46 | 0.38 | 100 | |
| 20260906054331 | 23 | 77 | 4.8 | 4.8 | 0.00 | 0.46 | 0.38 | 100 | |
| 20260906053831 | 23 | 92 | 1.6 | 4.8 | 0.00 | 0.46 | 0.38 | 100 | |
| 20260906053331 | 23 | 21 | 3.2 | 4.8 | 0.00 | 0.46 | 0.38 | 100 | |
| 20260906052830 | 23 | 45 | 3.2 | 3.2 | 0.00 | 0.46 | 0.38 | 100 | |
| 20260906052330 | 23 | 36 | 1.6 | 4.8 | 0.00 | 0.46 | 0.38 | 100 | |
| 20260906051831 | 23 | 102 | 1.6 | 4.8 | 0.00 | 0.46 | 0.38 | 100 | |
| 20260906051331 | 23 | 106 | 0.0 | 4.8 | 0.00 | 0.46 | 0.38 | 100 | |
| 20260906050831 | 23 | 70 | 1.6 | 6.4 | 0.00 | 0.46 | 0.38 | 100 | |
| 20260906050331 | 23 | 73 | 1.6 | 6.4 | 0.00 | 0.46 | 0.38 | 100 | |
| 20260906045831 | 23 | 64 | 1.6 | 6.4 | 0.00 | 0.46 | 0.38 | 100 | |
| 20260906045331 | 23 | 135 | 1.6 | 4.8 | 0.00 | 0.46 | 0.38 | 100 | |
| 20260906044831 | 23 | 60 | 3.2 | 4.8 | 0.00 | 0.46 | 0.38 | 100 | |
| 20260906044331 | 23 | 92 | 0.0 | 4.8 | 0.00 | 0.46 | 0.38 | 100 | |
| 20260906043831 | 23 | 94 | 0.0 | 4.8 | 0.00 | 0.46 | 0.38 | 100 | |
| 20260906043331 | 23 | 95 | 0.0 | 3.2 | 0.00 | 0.46 | 0.38 | 100 | |
| 20260906042831 | 23 | 150 | 0.0 | 3.2 | 0.00 | 0.46 | 0.38 | 100 | |
| 20260906042331 | 23 | 64 | 1.6 | 1.6 | 0.00 | 0.46 | 0.38 | 100 | |
| 20260906041831 | 23 | 43 | 0.0 | 1.6 | 0.00 | 0.46 | 0.38 | 100 | |
| 20260906041331 | 23 | 52 | 0.0 | 1.6 | 0.00 | 0.46 | 0.38 | 100 | |
| 20260906040831 | 23 | 106 | 0.0 | 4.8 | 0.00 | 0.46 | 0.38 | 100 | |
| 20260906040331 | 24 | 33 | 1.6 | 8.0 | 0.00 | 0.46 | 0.38 | 100 | |
| 20260906035831 | 24 | 39 | 4.8 | 9.7 | 0.00 | 0.46 | 0.38 | 100 | |
| 20260906035331 | 23 | 50 | 1.6 | 9.7 | 0.00 | 0.46 | 0.38 | 100 | |
| 20260906034831 | 24 | 82 | 4.8 | 9.7 | 0.00 | 0.46 | 0.38 | 100 | |
| 20260906034331 | 24 | 75 | 3.2 | 8.0 | 0.00 | 0.46 | 0.38 | 100 | |
| 20260906033831 | 24 | 54 | 4.8 | 8.0 | 0.00 | 0.46 | 0.38 | 100 | |
| 20260906033331 | 24 | 45 | 1.6 | 8.0 | 0.00 | 0.46 | 0.38 | 100 | |
| 20260906032831 | 24 | 101 | 3.2 | 11.3 | 0.00 | 0.46 | 0.38 | 100 | |
| 20260906032331 | 25 | 63 | 4.8 | 8.0 | 0.00 | 0.46 | 0.38 | 100 | |
| 20260906031831 | 25 | 22 | 3.2 | 6.4 | 0.00 | 0.46 | 0.38 | 100 | |
| 20260906031331 | 25 | 36 | 1.6 | 4.8 | 0.00 | 0.46 | 0.38 | 100 | |
| 20260906030831 | 25 | 59 | 3.2 | 8.0 | 0.00 | 0.46 | 0.38 | 100 | |
| 20260906030331 | 25 | 99 | 3.2 | 6.4 | 0.00 | 0.46 | 0.38 | 100 | |
| 20260906025831 | 25 | 74 | 3.2 | 8.0 | 0.00 | 0.46 | 0.38 | 100 | |
| 20260906025331 | 25 | 135 | 1.6 | 14.5 | 0.00 | 0.46 | 0.38 | 100 | |
| 20260906024831 | 25 | 74 | 3.2 | 11.3 | 0.00 | 0.46 | 0.38 | 100 | |
| 20260906024331 | 25 | 70 | 6.4 | 8.0 | 0.00 | 0.46 | 0.38 | 100 | |
| 20260906023831 | 25 | 37 | 3.2 | 4.8 | 0.00 | 0.46 | 0.38 | 100 | |
| 20260906023331 | 25 | 243 | 0.0 | 8.0 | 0.00 | 0.46 | 0.38 | 100 | |
| 20260906022831 | 25 | 66 | 4.8 | 8.0 | 0.00 | 0.46 | 0.38 | 100 | |
| 20260906022331 | 26 | 88 | 4.8 | 6.4 | 0.00 | 0.46 | 0.38 | 100 | |
| 20260906021831 | 25 | 108 | 1.6 | 1.6 | 0.00 | 0.46 | 0.38 | 100 | |
| 20260906021331 | 25 | 185 | 0.0 | 0.0 | 0.00 | 0.46 | 0.38 | 100 | |
| 20260906020831 | 26 | 185 | 0.0 | 0.0 | 0.00 | 0.46 | 0.38 | 100 | |
| 20260906020331 | 25 | 185 | 0.0 | 1.6 | 0.00 | 0.46 | 0.38 | 100 | |
| 20260906015831 | 26 | 215 | 0.0 | 1.6 | 0.00 | 0.46 | 0.38 | 100 | |
| 20260906015331 | 26 | 251 | 0.0 | 1.6 | 0.00 | 0.46 | 0.38 | 100 | |
| 20260906014831 | 26 | 189 | 1.6 | 4.8 | 0.00 | 0.46 | 0.38 | 100 | |
| 20260906014331 | 26 | 78 | 0.0 | 1.6 | 0.00 | 0.46 | 0.38 | 100 | |
| 20260906013831 | 26 | 180 | 0.0 | 1.6 | 0.00 | 0.46 | 0.38 | 100 | |
| 20260906013331 | 26 | 205 | 0.0 | 3.2 | 0.00 | 0.46 | 0.38 | 100 | |
| 20260906012831 | 26 | 81 | 0.0 | 3.2 | 0.00 | 0.46 | 0.38 | 100 | |
| 20260906012331 | 26 | 157 | 0.0 | 1.6 | 0.00 | 0.46 | 0.38 | 100 | |
| 20260906011831 | 26 | 217 | 0.0 | 4.8 | 0.00 | 0.46 | 0.38 | 100 | |
| 20260906011331 | 26 | 174 | 0.0 | 4.8 | 0.00 | 0.46 | 0.38 | 100 | |
| 20260906010831 | 26 | 236 | 0.0 | 3.2 | 0.00 | 0.46 | 0.38 | 100 | |
| 20260906010331 | 26 | 144 | 0.0 | 0.0 | 0.00 | 0.46 | 0.38 | 100 | |
| 20260906005831 | 27 | 185 | 0.0 | 1.6 | 0.00 | 0.46 | 0.38 | 100 | |
| 20260906005331 | 26 | 156 | 1.6 | 1.6 | 0.00 | 0.46 | 0.38 | 100 | |
| 20260906004831 | 27 | 146 | 0.0 | 1.6 | 0.00 | 0.46 | 0.38 | 100 | |
| 20260906004331 | 26 | 163 | 0.0 | 0.0 | 0.00 | 0.46 | 0.38 | 100 | |
| 20260906003831 | 26 | 144 | 0.0 | 0.0 | 0.00 | 0.46 | 0.38 | 100 | |
| 20260906003331 | 26 | 78 | 0.0 | 0.0 | 0.00 | 0.46 | 0.38 | 100 | |
| 20260906002831 | 27 | 78 | 0.0 | 0.0 | 0.00 | 0.46 | 0.38 | 100 | |
| 20260906002331 | 27 | 78 | 0.0 | 0.0 | 0.00 | 0.46 | 0.38 | 100 | |
| 20260906001831 | 27 | 78 | 0.0 | 0.0 | 0.00 | 0.46 | 0.38 | 100 | |
| 20260906001331 | 27 | 78 | 0.0 | 0.0 | 0.00 | 0.46 | 0.38 | 100 | |
| 20260906000831 | 27 | 108 | 0.0 | 1.6 | 0.00 | 0.46 | 0.38 | 100 | |
| 20260906000333 | 27 | 87 | 1.6 | 4.8 | 0.00 | 0.46 | 0.38 | 100 | |
| 20260905235831 | 27 | 70 | 3.2 | 6.4 | 0.00 | 0.46 | 0.38 | 100 | |
| 20260905235331 | 27 | 109 | 0.0 | 6.4 | 0.00 | 0.46 | 0.38 | 100 | |
| 20260905234831 | 27 | 82 | 4.8 | 8.0 | 0.00 | 0.46 | 0.38 | 100 | |
| 20260905234331 | 28 | 18 | 0.0 | 8.0 | 0.00 | 0.46 | 0.38 | 100 | |
| 20260905233831 | 28 | 63 | 6.4 | 11.3 | 0.00 | 0.46 | 0.38 | 100 | |
| 20260905233331 | 28 | 50 | 8.0 | 16.1 | 0.00 | 0.46 | 0.38 | 100 | |
| 20260905232831 | 28 | 165 | 6.4 | 12.9 | 0.00 | 0.46 | 0.38 | 100 | |
| 20260905232331 | 28 | 80 | 9.7 | 16.1 | 0.00 | 0.46 | 0.38 | 100 | |
| 20260905231831 | 30 | 23 | 11.3 | 16.1 | 0.00 | 0.46 | 0.38 | 100 | |
| 20260905231331 | 30 | 142 | 9.7 | 12.9 | 0.00 | 0.46 | 0.38 | 100 | |
| 20260905230831 | 30 | 63 | 8.0 | 16.1 | 0.00 | 0.46 | 0.38 | 100 | |
| 20260905230331 | 30 | 59 | 6.4 | 17.7 | 0.00 | 0.46 | 0.38 | 100 | |
| 20260905225831 | 31 | 59 | 11.3 | 19.3 | 0.00 | 0.46 | 0.38 | 100 | |
| 20260905225331 | 32 | 63 | 3.2 | 9.7 | 0.00 | 0.46 | 0.38 | 100 | |
| 20260905224831 | 33 | 7 | 0.0 | 9.7 | 0.00 | 0.46 | 0.38 | 100 | |
| 20260905224331 | 32 | 28 | 3.2 | 11.3 | 0.00 | 0.46 | 0.38 | 100 | |
| 20260905223831 | 33 | 350 | 11.3 | 14.5 | 0.00 | 0.46 | 0.38 | 100 | |
| 20260905223331 | 33 | 334 | 4.8 | 11.3 | 0.00 | 0.46 | 0.38 | 100 | |
| 20260905222831 | 35 | 348 | 4.8 | 12.9 | 0.00 | 0.46 | 0.38 | 100 | |
| 20260905222331 | 34 | 7 | 6.4 | 9.7 | 0.00 | 0.46 | 0.38 | 100 | |
| 20260905221831 | 34 | 8 | 1.6 | 8.0 | 0.00 | 0.46 | 0.38 | 100 | |
| 20260905221331 | 35 | 33 | 3.2 | 9.7 | 0.00 | 0.46 | 0.38 | 100 | |
| 20260905220831 | 34 | 354 | 4.8 | 14.5 | 0.00 | 0.46 | 0.38 | 100 | |
| 20260905220331 | 34 | 77 | 4.8 | 12.9 | 0.00 | 0.46 | 0.38 | 100 | |
| 20260905215831 | 33 | 358 | 4.8 | 9.7 | 0.00 | 0.46 | 0.38 | 100 | |
| 20260905215331 | 35 | 67 | 1.6 | 8.0 | 0.00 | 0.46 | 0.38 | 100 | |
| 20260905214831 | 35 | 36 | 3.2 | 12.9 | 0.00 | 0.46 | 0.38 | 100 | |
| 20260905214331 | 35 | 338 | 8.0 | 12.9 | 0.00 | 0.46 | 0.38 | 100 | |
| 20260905213831 | 35 | 347 | 6.4 | 12.9 | 0.00 | 0.46 | 0.38 | 100 | |
| 20260905213331 | 35 | 306 | 1.6 | 12.9 | 0.00 | 0.46 | 0.38 | 100 | |
| 20260905212831 | 35 | 84 | 1.6 | 11.3 | 0.00 | 0.46 | 0.38 | 100 | |
| 20260905212331 | 35 | 337 | 8.0 | 11.3 | 0.00 | 0.46 | 0.38 | 100 | |
| 20260905211831 | 35 | 30 | 6.4 | 12.9 | 0.00 | 0.46 | 0.38 | 100 | |
| 20260905211331 | 35 | 358 | 3.2 | 14.5 | 0.00 | 0.46 | 0.38 | 100 | |
| 20260905210831 | 35 | 28 | 6.4 | 12.9 | 0.00 | 0.46 | 0.38 | 100 | |
| 20260905210331 | 35 | 337 | 4.8 | 14.5 | 0.00 | 0.46 | 0.38 | 100 | |
| 20260905205831 | 35 | 306 | 8.0 | 11.3 | 0.00 | 0.46 | 0.38 | 100 | |
| 20260905205331 | 35 | 54 | 0.0 | 9.7 | 0.00 | 0.46 | 0.38 | 100 | |
| 20260905204831 | 35 | 5 | 9.7 | 14.5 | 0.00 | 0.46 | 0.38 | 100 | |
| 20260905204331 | 35 | 324 | 11.3 | 16.1 | 0.00 | 0.46 | 0.38 | 100 | |
| 20260905203831 | 35 | 23 | 1.6 | 12.9 | 0.00 | 0.46 | 0.38 | 100 | |
| 20260905203331 | 35 | 313 | 8.0 | 14.5 | 0.00 | 0.46 | 0.38 | 100 | |
| 20260905202831 | 36 | 302 | 4.8 | 9.7 | 0.00 | 0.46 | 0.38 | 100 | |
| 20260905202331 | 36 | 261 | 9.7 | 12.9 | 0.00 | 0.46 | 0.38 | 100 | |
| 20260905201831 | 35 | 310 | 11.3 | 14.5 | 0.00 | 0.46 | 0.38 | 100 | |
| 20260905201331 | 35 | 8 | 1.6 | 12.9 | 0.00 | 0.46 | 0.38 | 100 | |
| 20260905200831 | 36 | 298 | 9.7 | 11.3 | 0.00 | 0.46 | 0.38 | 100 | |
| 20260905200331 | 35 | 320 | 4.8 | 12.9 | 0.00 | 0.46 | 0.38 | 100 | |
| 20260905195831 | 35 | 324 | 3.2 | 12.9 | 0.00 | 0.46 | 0.38 | 100 | |
| 20260905195331 | 35 | 317 | 6.4 | 14.5 | 0.00 | 0.46 | 0.38 | 100 | |
| 20260905194831 | 36 | 352 | 1.6 | 9.7 | 0.00 | 0.46 | 0.38 | 100 | |
| 20260905194331 | 36 | 336 | 4.8 | 9.7 | 0.00 | 0.46 | 0.38 | 100 | |
| 20260905193831 | 35 | 270 | 4.8 | 12.9 | 0.00 | 0.46 | 0.38 | 100 | |
| 20260905193331 | 36 | 291 | 4.8 | 16.1 | 0.00 | 0.46 | 0.38 | 100 | |
| 20260905192831 | 36 | 274 | 6.4 | 8.0 | 0.00 | 0.46 | 0.38 | 100 | |
| 20260905192331 | 36 | 310 | 1.6 | 6.4 | 0.00 | 0.46 | 0.38 | 100 | |
| 20260905191831 | 35 | 333 | 0.0 | 12.9 | 0.00 | 0.46 | 0.38 | 100 | |
| 20260905191331 | 35 | 305 | 6.4 | 11.3 | 0.00 | 0.46 | 0.38 | 100 | |
| 20260905190831 | 36 | 270 | 6.4 | 11.3 | 0.00 | 0.46 | 0.38 | 100 | |
| 20260905190331 | 35 | 244 | 1.6 | 8.0 | 0.00 | 0.46 | 0.38 | 100 | |
| 20260905185331 | 35 | 262 | 3.2 | 14.5 | 0.00 | 0.46 | 0.38 | 100 | |
| 20260905184831 | 35 | 285 | 4.8 | 12.9 | 0.00 | 0.46 | 0.38 | 100 | |
| 20260905184331 | 35 | 288 | 1.6 | 6.4 | 0.00 | 0.46 | 0.38 | 100 | |
| 20260905183831 | 35 | 300 | 3.2 | 14.5 | 0.00 | 0.46 | 0.38 | 100 | |
| 20260905183331 | 35 | 277 | 4.8 | 17.7 | 0.00 | 0.46 | 0.38 | 100 | |
| 20260905182831 | 35 | 247 | 6.4 | 16.1 | 0.00 | 0.46 | 0.38 | 100 | |
| 20260905182331 | 34 | 295 | 1.6 | 11.3 | 0.00 | 0.46 | 0.38 | 100 | |
| 20260905181831 | 35 | 307 | 1.6 | 11.3 | 0.00 | 0.46 | 0.38 | 100 | |
| 20260905181331 | 34 | 258 | 3.2 | 11.3 | 0.00 | 0.46 | 0.38 | 100 | |
| 20260905180831 | 35 | 277 | 6.4 | 12.9 | 0.00 | 0.46 | 0.38 | 100 | |
| 20260905180331 | 34 | 275 | 4.8 | 9.7 | 0.00 | 0.48 | 0.38 | 100 | |
| 20260905175831 | 33 | 232 | 1.6 | 12.9 | 0.00 | 0.48 | 0.38 | 100 | |
| 20260905175331 | 33 | 285 | 0.0 | 12.9 | 0.00 | 0.48 | 0.38 | 100 | |
| 20260905174831 | 33 | 272 | 6.4 | 12.9 | 0.00 | 0.48 | 0.38 | 100 | |
| 20260905174331 | 34 | 236 | 4.8 | 12.9 | 0.00 | 0.48 | 0.38 | 100 | |
| 20260905173831 | 33 | 272 | 0.0 | 11.3 | 0.00 | 0.48 | 0.38 | 100 | |
| 20260905173331 | 34 | 306 | 3.2 | 9.7 | 0.00 | 0.48 | 0.38 | 100 | |
| 20260905172831 | 34 | 293 | 0.0 | 9.7 | 0.00 | 0.48 | 0.38 | 100 | |
| 20260905172331 | 33 | 35 | 0.0 | 3.2 | 0.00 | 0.48 | 0.38 | 100 | |
| 20260905171831 | 33 | 285 | 0.0 | 4.8 | 0.00 | 0.48 | 0.38 | 100 | |
| 20260905171331 | 33 | 236 | 4.8 | 12.9 | 0.00 | 0.48 | 0.38 | 100 | |
| 20260905170831 | 33 | 303 | 4.8 | 8.0 | 0.00 | 0.48 | 0.38 | 100 | |
| 20260905170331 | 32 | 265 | 3.2 | 11.3 | 0.00 | 0.53 | 0.38 | 100 | |
| 20260905165831 | 32 | 258 | 4.8 | 14.5 | 0.00 | 0.53 | 0.38 | 100 | |
| 20260905165331 | 32 | 230 | 0.0 | 12.9 | 0.00 | 0.53 | 0.38 | 100 | |
| 20260905164831 | 32 | 260 | 8.0 | 12.9 | 0.00 | 0.53 | 0.38 | 100 | |
| 20260905164331 | 32 | 285 | 8.0 | 12.9 | 0.00 | 0.53 | 0.38 | 100 | |
| 20260905163831 | 31 | 265 | 8.0 | 12.9 | 0.00 | 0.53 | 0.38 | 100 | |
| 20260905163331 | 31 | 289 | 1.6 | 11.3 | 0.00 | 0.53 | 0.38 | 100 | |
| 20260905162831 | 31 | 268 | 3.2 | 12.9 | 0.00 | 0.53 | 0.38 | 100 | |
| 20260905162331 | 30 | 264 | 8.0 | 14.5 | 0.00 | 0.53 | 0.38 | 100 | |
| 20260905161831 | 30 | 278 | 12.9 | 12.9 | 0.00 | 0.53 | 0.38 | 100 | |
| 20260905161331 | 31 | 52 | 0.0 | 11.3 | 0.00 | 0.53 | 0.38 | 100 | |
| 20260905160831 | 30 | 253 | 8.0 | 14.5 | 0.00 | 0.53 | 0.38 | 100 | |
| 20260905160331 | 30 | 68 | 0.0 | 14.5 | 0.00 | 0.53 | 0.38 | 100 | |
| 20260905155831 | 30 | 293 | 6.4 | 12.9 | 0.00 | 0.53 | 0.38 | 100 | |
| 20260905155331 | 30 | 196 | 4.8 | 11.3 | 0.00 | 0.53 | 0.38 | 100 | |
| 20260905154832 | 30 | 227 | 0.0 | 14.5 | 0.00 | 0.53 | 0.38 | 100 | |
| 20260905154331 | 30 | 241 | 3.2 | 11.3 | 0.00 | 0.53 | 0.38 | 100 | |
| 20260905153831 | 30 | 275 | 8.0 | 9.7 | 0.00 | 0.53 | 0.38 | 100 | |
| 20260905153331 | 28 | 268 | 6.4 | 11.3 | 0.00 | 0.53 | 0.38 | 100 | |
| 20260905152831 | 28 | 191 | 3.2 | 16.1 | 0.00 | 0.53 | 0.38 | 100 | |
| 20260905152331 | 28 | 188 | 3.2 | 9.7 | 0.00 | 0.53 | 0.38 | 100 | |
| 20260905151831 | 27 | 188 | 3.2 | 11.3 | 0.00 | 0.53 | 0.38 | 100 | |
| 20260905151331 | 27 | 163 | 9.7 | 9.7 | 0.00 | 0.53 | 0.38 | 100 | |
| 20260905150831 | 27 | 302 | 0.0 | 12.9 | 0.00 | 0.53 | 0.38 | 100 | |
| 20260905150331 | 27 | 56 | 3.2 | 9.7 | 0.00 | 0.53 | 0.38 | 100 | |
| 20260905145831 | 27 | 239 | 4.8 | 8.0 | 0.00 | 0.53 | 0.38 | 100 | |
| 20260905145331 | 26 | 157 | 8.0 | 14.5 | 0.00 | 0.53 | 0.38 | 100 | |
| 20260905144831 | 26 | 118 | 14.5 | 14.5 | 0.00 | 0.53 | 0.38 | 100 | |
| 20260905144332 | 25 | 123 | 4.8 | 9.7 | 0.00 | 0.53 | 0.38 | 100 | |
| 20260905143831 | 25 | 237 | 4.8 | 9.7 | 0.00 | 0.53 | 0.38 | 100 | |
| 20260905143331 | 25 | 222 | 6.4 | 11.3 | 0.00 | 0.53 | 0.38 | 100 | |
| 20260905142831 | 25 | 210 | 0.0 | 11.3 | 0.00 | 0.53 | 0.38 | 100 | |
| 20260905142331 | 24 | 56 | 4.8 | 6.4 | 0.00 | 0.53 | 0.38 | 100 | |
| 20260905141831 | 23 | 78 | 0.0 | 8.0 | 0.00 | 0.53 | 0.38 | 100 | |
| 20260905141331 | 24 | 182 | 8.0 | 14.5 | 0.00 | 0.53 | 0.38 | 100 | |
| 20260905140831 | 23 | 78 | 0.0 | 11.3 | 0.00 | 0.53 | 0.38 | 100 | |
| 20260905140331 | 23 | 236 | 1.6 | 9.7 | 0.03 | 0.53 | 0.38 | 100 | |
| 20260905135831 | 23 | 156 | 4.8 | 11.3 | 0.05 | 0.53 | 0.38 | 100 | |
| 20260905135331 | 22 | 227 | 0.0 | 6.4 | 0.05 | 0.53 | 0.38 | 100 | |
| 20260905134831 | 22 | 129 | 4.8 | 11.3 | 0.08 | 0.53 | 0.38 | 100 | |
| 20260905134331 | 21 | 73 | 3.2 | 9.7 | 0.08 | 0.53 | 0.38 | 100 | |
| 20260905133831 | 21 | 46 | 4.8 | 6.4 | 0.08 | 0.53 | 0.38 | 100 | |
| 20260905133332 | 21 | 99 | 3.2 | 11.3 | 0.08 | 0.53 | 0.38 | 100 | |
| 20260905132831 | 21 | 123 | 3.2 | 8.0 | 0.13 | 0.53 | 0.38 | 100 | |
| 20260905132331 | 20 | 77 | 4.8 | 11.3 | 0.15 | 0.53 | 0.38 | 100 | |
| 20260905131831 | 20 | 87 | 9.7 | 16.1 | 0.18 | 0.53 | 0.38 | 100 | |
| 20260905131331 | 21 | 64 | 9.7 | 17.7 | 0.36 | 0.53 | 0.38 | 100 | |
| 20260905130832 | 20 | 210 | 6.4 | 20.9 | 0.36 | 0.53 | 0.38 | 100 | |
| 20260905130332 | 20 | 42 | 8.0 | 17.7 | 0.36 | 0.51 | 0.36 | 100 | |
| 20260905125832 | 20 | 74 | 14.5 | 17.7 | 0.33 | 0.48 | 0.33 | 100 | |
| 20260905125332 | 20 | 68 | 3.2 | 20.9 | 0.36 | 0.48 | 0.33 | 100 | |
| 20260905124832 | 20 | 105 | 8.0 | 22.5 | 0.38 | 0.46 | 0.30 | 100 | |
| 20260905124332 | 20 | 36 | 17.7 | 27.4 | 0.38 | 0.46 | 0.30 | 100 | |
| 20260905123832 | 20 | 95 | 17.7 | 29.0 | 0.38 | 0.46 | 0.30 | 100 | |
| 20260905123332 | 20 | 80 | 9.7 | 20.9 | 0.38 | 0.46 | 0.30 | 100 | |
| 20260905122832 | 20 | 39 | 9.7 | 27.4 | 0.33 | 0.41 | 0.25 | 100 | |
| 20260905122332 | 20 | 39 | 11.3 | 27.4 | 0.30 | 0.38 | 0.23 | 100 | |
| 20260905121832 | 20 | 52 | 12.9 | 29.0 | 0.23 | 0.30 | 0.15 | 100 | |
| 20260905121332 | 22 | 40 | 17.7 | 17.7 | 0.10 | 0.18 | 0.03 | 100 | |
| 20260905120832 | 21 | 330 | 6.4 | 27.4 | 0.10 | 0.18 | 0.03 | 100 | |
| 20260905120332 | 22 | 347 | 16.1 | 20.9 | 0.08 | 0.15 | 0.15 | 100 | |
| 20260905115832 | 21 | 326 | 4.8 | 9.7 | 0.08 | 0.15 | 0.15 | 100 | |
| 20260905115332 | 22 | 322 | 1.6 | 11.3 | 0.05 | 0.13 | 0.13 | 100 | |
| 20260905114832 | 22 | 288 | 4.8 | 12.9 | 0.00 | 0.08 | 0.08 | 100 | |
| 20260905114332 | 23 | 334 | 8.0 | 16.1 | 0.00 | 0.08 | 0.08 | 100 | |
| 20260905113832 | 22 | 313 | 6.4 | 14.5 | 0.00 | 0.08 | 0.08 | 100 | |
| 20260905113332 | 23 | 47 | 8.0 | 16.1 | 0.00 | 0.08 | 0.08 | 100 | |
| 20260905112832 | 23 | 337 | 12.9 | 29.0 | 0.00 | 0.08 | 0.08 | 100 | |
| 20260905112332 | 23 | 82 | 9.7 | 29.0 | 0.00 | 0.08 | 0.08 | 100 | |
| 20260905111832 | 23 | 2 | 9.7 | 32.2 | 0.00 | 0.08 | 0.08 | 100 | |
| 20260905111332 | 23 | 4 | 11.3 | 25.7 | 0.00 | 0.08 | 0.08 | 100 | |
| 20260905110832 | 23 | 57 | 16.1 | 25.7 | 0.00 | 0.08 | 0.08 | 100 | |
| 20260905110332 | 23 | 358 | 8.0 | 25.7 | 0.00 | 0.08 | 0.08 | 100 | |
| 20260905105832 | 24 | 1 | 20.9 | 37.0 | 0.00 | 0.08 | 0.08 | 100 | |
| 20260905105332 | 25 | 15 | 9.7 | 37.0 | 0.00 | 0.08 | 0.08 | 100 | |
| 20260905104832 | 26 | 336 | 24.1 | 49.9 | 0.00 | 0.08 | 0.08 | 100 | |
| 20260905104332 | 25 | 1 | 9.7 | 16.1 | 0.00 | 0.08 | 0.08 | 100 | |
| 20260905103832 | 26 | 36 | 4.8 | 19.3 | 0.00 | 0.08 | 0.08 | 100 | |
| 20260905103332 | 26 | 15 | 0.0 | 3.2 | 0.00 | 0.08 | 0.08 | 100 | |
| 20260905102832 | 26 | 334 | 1.6 | 3.2 | 0.00 | 0.08 | 0.08 | 100 | |
| 20260905102332 | 26 | 203 | 0.0 | 1.6 | 0.00 | 0.08 | 0.08 | 100 | |
| 20260905101832 | 26 | 265 | 0.0 | 3.2 | 0.00 | 0.08 | 0.08 | 100 | |
| 20260905101332 | 26 | 274 | 0.0 | 1.6 | 0.00 | 0.08 | 0.08 | 100 | |
| 20260905100832 | 26 | 232 | 0.0 | 1.6 | 0.00 | 0.08 | 0.08 | 100 | |
| 20260905100332 | 26 | 260 | 0.0 | 1.6 | 0.00 | 0.08 | 0.08 | 100 | |
| 20260905095832 | 26 | 291 | 1.6 | 3.2 | 0.00 | 0.08 | 0.08 | 100 | |
| 20260905095332 | 26 | 289 | 0.0 | 3.2 | 0.00 | 0.08 | 0.08 | 100 | |
| 20260905094832 | 26 | 315 | 0.0 | 3.2 | 0.00 | 0.08 | 0.08 | 100 | |
| 20260905094332 | 25 | 267 | 0.0 | 3.2 | 0.00 | 0.08 | 0.08 | 100 | |
| 20260905093832 | 25 | 247 | 0.0 | 0.0 | 0.00 | 0.08 | 0.08 | 100 | |
| 20260905093332 | 25 | 254 | 0.0 | 0.0 | 0.00 | 0.08 | 0.08 | 100 | |
| 20260905092832 | 25 | 254 | 0.0 | 0.0 | 0.00 | 0.08 | 0.08 | 100 | |
| 20260905092332 | 26 | 254 | 0.0 | 0.0 | 0.00 | 0.08 | 0.08 | 100 | |
| 20260905091832 | 26 | 254 | 0.0 | 0.0 | 0.00 | 0.08 | 0.08 | 100 | |
| 20260905091332 | 26 | 254 | 0.0 | 3.2 | 0.00 | 0.08 | 0.08 | 100 | |
| 20260905090832 | 26 | 220 | 0.0 | 1.6 | 0.00 | 0.08 | 0.08 | 100 | |
| 20260905090332 | 26 | 293 | 0.0 | 4.8 | 0.00 | 0.08 | 0.08 | 100 | |
| 20260905085832 | 26 | 299 | 4.8 | 4.8 | 0.00 | 0.08 | 0.08 | 100 | |
| 20260905085332 | 26 | 241 | 0.0 | 6.4 | 0.00 | 0.08 | 0.08 | 100 | |
| 20260905084832 | 26 | 295 | 0.0 | 4.8 | 0.00 | 0.08 | 0.08 | 100 | |
| 20260905084332 | 26 | 262 | 0.0 | 6.4 | 0.00 | 0.08 | 0.08 | 100 | |
| 20260905083832 | 26 | 315 | 0.0 | 8.0 | 0.00 | 0.08 | 0.08 | 100 | |
| 20260905083332 | 26 | 282 | 0.0 | 4.8 | 0.00 | 0.08 | 0.08 | 100 | |
| 20260905082832 | 26 | 292 | 1.6 | 8.0 | 0.00 | 0.08 | 0.08 | 100 | |
| 20260905082332 | 26 | 258 | 1.6 | 3.2 | 0.00 | 0.08 | 0.08 | 100 | |
| 20260905081832 | 26 | 284 | 1.6 | 3.2 | 0.00 | 0.08 | 0.08 | 100 | |
| 20260905081332 | 26 | 275 | 0.0 | 3.2 | 0.00 | 0.08 | 0.08 | 100 | |
| 20260905080832 | 25 | 275 | 3.2 | 3.2 | 0.00 | 0.08 | 0.08 | 100 | |
| 20260905080332 | 25 | 234 | 0.0 | 1.6 | 0.00 | 0.08 | 0.08 | 100 | |
| 20260905075832 | 25 | 234 | 0.0 | 1.6 | 0.00 | 0.08 | 0.08 | 100 | |
| 20260905075332 | 25 | 243 | 1.6 | 3.2 | 0.00 | 0.08 | 0.08 | 100 | |
| 20260905074832 | 25 | 264 | 0.0 | 0.0 | 0.00 | 0.08 | 0.08 | 100 | |
| 20260905074332 | 25 | 247 | 0.0 | 0.0 | 0.00 | 0.08 | 0.08 | 100 | |
| 20260905073832 | 25 | 247 | 0.0 | 0.0 | 0.00 | 0.08 | 0.08 | 100 | |
| 20260905073332 | 25 | 247 | 0.0 | 0.0 | 0.00 | 0.08 | 0.08 | 100 | |
| 20260905072832 | 25 | 247 | 0.0 | 0.0 | 0.00 | 0.08 | 0.08 | 100 | |
| 20260905072332 | 25 | 215 | 0.0 | 1.6 | 0.00 | 0.08 | 0.08 | 100 | |
| 20260905071832 | 26 | 213 | 0.0 | 1.6 | 0.00 | 0.08 | 0.08 | 100 | |
| 20260905071332 | 26 | 233 | 0.0 | 1.6 | 0.00 | 0.08 | 0.08 | 100 | |
| 20260905070832 | 26 | 248 | 0.0 | 1.6 | 0.00 | 0.08 | 0.08 | 100 | |
| 20260905070332 | 26 | 240 | 0.0 | 1.6 | 0.00 | 0.08 | 0.08 | 100 | |
| 20260905065832 | 26 | 271 | 0.0 | 3.2 | 0.00 | 0.08 | 0.08 | 100 | |
| 20260905065332 | 26 | 246 | 1.6 | 9.7 | 0.00 | 0.08 | 0.08 | 100 | |
| 20260905064832 | 26 | 310 | 0.0 | 4.8 | 0.00 | 0.08 | 0.08 | 100 | |
| 20260905064332 | 26 | 236 | 1.6 | 3.2 | 0.00 | 0.08 | 0.08 | 100 | |
| 20260905063832 | 26 | 241 | 1.6 | 3.2 | 0.00 | 0.08 | 0.08 | 100 | |
| 20260905063332 | 26 | 234 | 1.6 | 4.8 | 0.00 | 0.08 | 0.08 | 100 | |
| 20260905062832 | 26 | 237 | 1.6 | 3.2 | 0.00 | 0.08 | 0.08 | 100 | |
| 20260905062332 | 26 | 358 | 0.0 | 12.9 | 0.00 | 0.08 | 0.08 | 100 | |
| 20260905061832 | 26 | 295 | 1.6 | 12.9 | 0.00 | 0.08 | 0.08 | 100 |